Weather History for KGUY - October, 2013

Change the Weather History Date:

Tuesday, October 22, 2013

  Actual Average Record
Temperature  
Mean Temperature 60 °F 55 °F  
Max Temperature 75 °F 70 °F 86 °F (2003)
Min Temperature 44 °F 40 °F 33 °F (2006)
Degree Days  
Heating Degree Days 5 10  
Month to date heating degree days 168 158  
Since 1 July heating degree days 176 201  
Cooling Degree Days 0 0  
Month to date cooling degree days 25 25  
Year to date cooling degree days 1846 1479  
Growing Degree Days 9 (Base 50)    
Moisture  
Dew Point 32 °F    
Average Humidity 40    
Maximum Humidity 60    
Minimum Humidity 19    
Precipitation  
Precipitation 0.00 in 0.05 in 0.60 in (2002)
Month to date precipitation 0.69 1.25  
Year to date precipitation 14.01 17.81  
Snow  
Snow 0.00 in - - ()
Month to date snowfall T  
Since 1 July snowfall T  
Since 1 September snowfall T  
Snow Depth 0.00 in    
Sea Level Pressure  
Sea Level Pressure 30.07 in    
Wind  
Wind Speed 8 mph (WNW)    
Max Wind Speed 20 mph    
Max Gust Speed 25 mph    
Visibility 10 miles    
Events      
T = Trace of Precipitation, MM = Missing Value Source: NWS Daily Summary

Daily Weather History Graph

Daily Weather History Graph

Search for Another Location

Airport or City:

Trip Planner

Search our weather history database for the weather conditions in past years. The results will help you decide how hot, cold, wet, or windy it might be!

Date:

Astronomy

Oct. 22, 2013 Rise Set
Actual Time 8:00 AM CDT 7:00 PM CDT
Civil Twilight 7:33 AM CDT 7:26 PM CDT
Nautical Twilight 7:03 AM CDT 7:56 PM CDT
Astronomical Twilight 6:33 AM CDT 8:26 PM CDT
Moon 9:46 PM CDT (10/22) 11:26 AM CDT (10/22)
Length of Visible Light 11h 52m
Length of Day
11h 00m
Waning Gibbous, 86% of the Moon is Illuminated
Oct 22
Waning Gibbous
Oct 26
Last Quarter
Nov 3
New
Nov 9
First Quarter
Nov 17
Full

Hourly Weather History & Observations

Time (CDT) Temp. Windchill Dew Point Humidity Pressure Visibility Wind Dir Wind Speed Gust Speed Precip Events Conditions
12:53 AM 43.0 °F 37.7 °F 28.9 °F 58% 30.11 in 10.0 mi SW 9.2 mph - N/A   Clear
1:53 AM 45.0 °F 40.1 °F 28.9 °F 53% 30.09 in 10.0 mi WSW 9.2 mph - N/A   Clear
2:53 AM 44.1 °F 39.5 °F 30.0 °F 58% 30.09 in 10.0 mi WSW 8.1 mph - N/A   Clear
3:53 AM 46.9 °F - 30.9 °F 54% 30.07 in 9.0 mi West 9.2 mph - N/A   Clear
4:53 AM 46.9 °F - 32.0 °F 56% 30.07 in 10.0 mi WSW 10.4 mph - N/A   Clear
5:53 AM 51.1 °F - 30.9 °F 46% 30.05 in 10.0 mi WSW 18.4 mph - N/A   Clear
6:53 AM 46.9 °F - 32.0 °F 56% 30.07 in 10.0 mi WSW 11.5 mph - N/A   Clear
7:53 AM 46.9 °F - 33.1 °F 59% 30.08 in 10.0 mi West 15.0 mph - N/A   Clear
8:53 AM 48.0 °F - 32.0 °F 54% 30.10 in 10.0 mi West 10.4 mph - N/A   Clear
9:53 AM 50.0 °F - 33.1 °F 52% 30.14 in 10.0 mi NW 9.2 mph - N/A   Clear
10:53 AM 61.0 °F - 30.9 °F 32% 30.12 in 10.0 mi NNW 16.1 mph - N/A   Clear
11:53 AM 66.9 °F - 33.1 °F 28% 30.12 in 10.0 mi North 12.7 mph - N/A   Clear
12:53 PM 69.1 °F - 33.1 °F 26% 30.10 in 10.0 mi North 3.5 mph - N/A   Clear
1:53 PM 71.1 °F - 32.0 °F 24% 30.07 in 10.0 mi Variable 4.6 mph - N/A   Clear
2:53 PM 73.0 °F - 30.9 °F 21% 30.04 in 10.0 mi Variable 4.6 mph - N/A   Clear
3:53 PM 73.9 °F - 30.9 °F 21% 30.03 in 10.0 mi NNW 4.6 mph - N/A   Clear
4:53 PM 75.0 °F - 30.0 °F 19% 30.02 in 10.0 mi North 9.2 mph 20.7 mph N/A   Clear
5:53 PM 73.0 °F - 30.0 °F 20% 30.01 in 10.0 mi NNW 9.2 mph - N/A   Clear
6:53 PM 66.0 °F - 30.0 °F 26% 30.04 in 10.0 mi North 4.6 mph - N/A   Clear
7:53 PM 64.9 °F - 30.9 °F 28% 30.05 in 10.0 mi Calm Calm - N/A   Clear
8:53 PM 57.0 °F - 33.1 °F 40% 30.06 in 10.0 mi NE 3.5 mph - N/A   Clear
9:53 PM 52.0 °F - 33.1 °F 49% 30.08 in 10.0 mi SW 5.8 mph - N/A   Clear
10:53 PM 48.0 °F - 33.1 °F 56% 30.07 in 10.0 mi SW 9.2 mph - N/A   Clear
11:53 PM 46.9 °F - 33.1 °F 59% 30.06 in 10.0 mi SW 6.9 mph - N/A   Clear